User: anonymous   Login
Location: Unspecified
(0.0000°N, 0.0000°E)
Time: 16:10:02
(UTC+02:00)
Language:

Cosmos 1538 Rocket - Orbit

View from above orbital plane
View from above orbital plane
View from above satellite
View from above satellite

Ground track
Ground track

The orbit data is extracted from the following two-line orbital elements,

1 14760U 84019B   15109.16445808  .00000217  00000-0  83777-4 0  9998
2 14760 074.0421 130.9520 0028112 187.5150 233.9141 14.35668062630204
Epoch (UTC): 19 April 2015 03:56:49
Eccentricity: 0.0028112
inclination: 74.0421°
perigee height: 753 km
apogee height: 793 km
right ascension of ascending node: 130.9520°
argument of perigee: 187.5150°
revolutions per day: 14.35668062
mean anomaly at epoch: 233.9141°
orbit number at epoch: 63020

The dashed part of the orbit path shows where the satellite is in the earth's shadow,  

DLR